This is the latest recevied weather packets stored in our database for station/object DL2AMT-9. If no packets are shown the sender has not sent any weather packets the latest 10 day(s).
| Time | Temp. | Humidity | Pressure | Rain* | Wind** | Luminosity | Snow |
|---|---|---|---|---|---|---|---|
| 1777818365 | 34.44° C | 24% | 967.8 hPa | - | - | - | - |
| 1777818065 | 34.44° C | 30% | 968 hPa | - | - | - | - |
| 1777817765 | 35° C | 29% | 967.7 hPa | - | - | - | - |
| 1777817465 | 34.44° C | 28% | 967.8 hPa | - | - | - | - |
| 1777817164 | 33.33° C | 29% | 967.7 hPa | - | - | - | - |
| 1777816865 | 33.33° C | 29% | 967.7 hPa | - | - | - | - |
| 1777816564 | 33.33° C | 29% | 967.7 hPa | - | - | - | - |
| 1777815964 | 31.67° C | 28% | 967.8 hPa | - | - | - | - |
| 1777815664 | 30.56° C | 27% | 967.7 hPa | - | - | - | - |
| 1777815364 | 30.56° C | 27% | 967.8 hPa | - | - | - | - |
| 1777815064 | 31.11° C | 26% | 967.8 hPa | - | - | - | - |
| 1777814763 | 31.11° C | 26% | 967.9 hPa | - | - | - | - |
| 1777814464 | 32.22° C | 26% | 968 hPa | - | - | - | - |
| 1777814163 | 32.22° C | 25% | 968.1 hPa | - | - | - | - |
| 1777813863 | 32.78° C | 24% | 968.2 hPa | - | - | - | - |
| 1777813562 | 32.22° C | 22% | 968.2 hPa | - | - | - | - |
| 1777813129 | 29.44° C | 23% | 968.3 hPa | - | - | - | - |
| 1777812829 | 29.44° C | 24% | 968.2 hPa | - | - | - | - |
| 1777812529 | 28.89° C | 25% | 968.4 hPa | - | - | - | - |
| 1777812248 | 28.33° C | 24% | 968.4 hPa | - | - | - | - |
| 1777811929 | 28.33° C | 25% | 968.4 hPa | - | - | - | - |
| 1777811629 | 28.33° C | 25% | 968.4 hPa | - | - | - | - |
| 1777811329 | 28.33° C | 25% | 968.5 hPa | - | - | - | - |
| 1777810729 | 28.89° C | 25% | 968.5 hPa | - | - | - | - |
| 1777810429 | 28.89° C | 25% | 968.5 hPa | - | - | - | - |
* Rain since midnight (hover to see other rain measurements)
** Current wind speed in m/s (hover to see current wind gust speed)